星链-31981 (STARLINK-31981 )

导读 | 星芒AI

STARLINK-31981 是 SpaceX Starlink 卫星互联网项目中的一颗低轨卫星,属于 Starlink 群体部署计划的一部分。该卫星于 2023 年发射,运行在约 550 公里的轨道高度,旨在为全球用户提供高速互联网服务。它采用先进的通信技术,支持宽带数据传输,并具备自动避碰功能以确保太空安全。作为 Starlink 系统的组成部分,STARLINK-31981 有助于提升偏远地区的网络覆盖,推动全球数字连接。

基本信息
目录编号:
60035
目录名称:
STARLINK-31981
国际标识:
2024-111V
轨道中心:
EARTH
卫星名称:
星链-31981
卫星全名:
星链-31981 (STARLINK-31981 )
卫星状态:
在轨 (已飞行513 天)
发射日期:
2024-06-08 UTC
国别 :
美国 (US)
星等 :
--
轨道信息
数据来源 国际轨道数据
星历时间: 2025-11-02T14:34:55+0800
22小时前
查看轨道信息
半长轴: 6853.371km
偏心率: 0.0001369
轨道倾角: 53.160°
近地点辐角 95.805°
升交点赤经 307.595°
平近点角 264.310°
近地点: 474.297km
远地点: 476.175km
周期: 94.106分钟
每日圈数: 15.301937
详细信息
固有亮度:
5
最大亮度:
1.5
卫星平台:
Starlink v2.0 mini
覆盖范围:
全球
运营商:
太空探索技术公司
运营商所在国:
美国
制造商(研发单位):
太空探索技术公司
制造商所在国:
美国
使用方式:
暂无
卫星简介
星链(Starlink)计划是由太空探索技术公司(SpaceX)提出的一个巨型低轨卫星互联网星座项目,计划在2019年至2024年间在太空搭建由约1.2万颗卫星组成的“星链”网络,其中1584颗将部署在地球上空550千米处的近地轨道,并从2020年开始工作。该卫星仍在工作。
2D轨道图
3D轨道图
轨道高度分析图
轨道倾角分析图
轨道综合分析图
查看轨道综合分析图